Date,TemperatureHighF,TemperatureAvgF,TemperatureLowF,DewpointHighF,DewpointAvgF,DewpointLowF,HumidityHigh,HumidityAvg,HumidityLow,PressureMaxIn,PressureMinIn,WindSpeedMaxMPH,WindSpeedAvgMPH,GustSpeedMaxMPH,PrecipitationSumIn
2013-1-1,54.0,42.7,34.4,39.0,33.4,29.0,94,73,41,30.21,30.11,7,2,9,0.01
2013-1-2,48.0,23.0,32.4,36.0,-19.5,-99.9,93,50,58,30.17,30.05,8,-179,13,0.00
2013-1-3,53.6,32.5,31.9,39.0,-1.6,-99.9,94,52,53,30.18,30.07,5,-277,7,0.00
2013-1-4,56.8,44.3,35.1,43.0,37.9,34.0,94,79,57,30.23,30.10,4,1,6,0.00
2013-1-5,46.4,25.6,36.4,43.0,-13.4,-99.9,96,57,84,30.15,29.97,6,-374,10,0.10
2013-1-6,49.2,16.1,42.1,47.0,-47.1,-99.9,100,36,91,30.11,29.97,4,-410,7,0.02
2013-1-7,57.5,19.5,40.7,52.0,-40.5,-99.9,95,36,68,30.17,30.08,6,-425,6,0.01
2013-1-8,47.3,5.2,41.9,46.0,-83.3,-99.9,94,11,92,30.17,30.05,0,-883,1,0.00
2013-1-9,-200.0,0.0,200.0,-99.9,-99.9,-99.9,0,0,100,30.07,29.88,0,-999,0,0.00
2013-1-10,-200.0,0.0,200.0,-99.9,-99.9,-99.9,0,0,100,30.08,29.96,0,-999,0,0.00
2013-1-11,50.3,27.8,37.7,41.0,-12.8,-99.9,85,47,62,30.16,30.02,14,-352,20,0.00
2013-1-12,-200.0,0.0,200.0,-99.9,-99.9,-99.9,0,0,100,30.16,30.04,0,-999,0,0.00
2013-1-13,50.1,13.8,29.7,35.0,-53.2,-99.9,92,27,48,30.19,30.07,8,-556,11,0.00
2013-1-14,45.7,24.0,34.7,36.0,-25.1,-99.9,84,34,30,30.32,30.13,8,-30,12,0.00
2013-1-15,52.6,41.1,33.4,40.0,33.7,30.0,91,76,53,30.41,30.30,4,1,5,0.00
2013-1-16,58.2,23.6,36.9,42.0,-30.7,-99.9,87,35,51,30.35,30.18,3,-489,4,0.00
2013-1-17,59.2,45.6,35.1,42.0,38.1,33.0,94,77,48,30.19,30.08,3,1,4,0.00
2013-1-18,60.0,46.8,36.3,44.0,38.2,34.0,93,74,54,30.15,30.06,4,1,6,0.00
2013-1-19,61.6,47.3,36.4,43.0,36.9,32.0,84,69,49,30.18,30.07,5,2,6,0.00
2013-1-20,61.1,45.1,37.8,41.0,27.1,-99.9,79,61,45,30.15,30.05,5,2,8,0.00
2013-1-21,60.3,47.1,36.1,44.0,37.7,32.0,85,71,49,30.10,30.00,5,2,7,0.00
2013-1-22,58.5,24.6,38.1,42.0,-24.2,-99.9,88,43,54,30.04,29.91,5,-449,7,0.00
2013-1-23,49.9,23.0,46.2,47.0,-31.5,-99.9,96,40,74,30.00,29.87,5,-521,9,0.34
2013-1-24,53.4,9.3,52.0,52.0,-73.2,-99.9,95,17,93,30.09,29.98,1,-822,2,0.00
2013-1-25,-200.0,0.0,200.0,-99.9,-99.9,-99.9,0,0,100,30.10,29.96,0,-999,0,0.00
2013-1-26,54.6,22.7,42.4,45.0,-34.9,-99.9,84,35,67,29.98,29.89,16,-522,21,0.00
2013-1-27,56.0,41.5,38.7,39.0,25.2,-99.9,83,67,39,30.12,29.98,9,4,14,0.00
2013-1-28,56.2,47.3,41.6,42.0,38.1,35.0,85,71,52,30.20,30.07,11,4,17,0.00
2013-1-29,59.2,30.3,42.2,47.0,-11.7,-99.9,83,46,57,30.29,30.19,7,-363,8,0.00
2013-1-30,61.4,26.5,43.8,45.0,-25.4,-99.9,88,39,54,30.28,30.17,4,-472,7,0.00
2013-1-31,65.4,51.6,41.3,49.0,43.7,40.0,93,76,50,30.23,30.09,6,2,8,0.00
2013-2-1,65.8,45.7,40.8,50.0,30.2,-99.9,93,72,53,30.14,30.05,6,2,7,0.00
2013-2-2,51.4,27.3,43.4,46.0,-14.8,-99.9,93,54,77,30.21,30.13,8,-300,17,0.00
2013-2-3,56.4,39.3,43.6,49.0,20.1,-99.9,97,75,77,30.17,30.06,11,2,14,0.00
2013-2-4,49.6,41.9,38.6,48.0,36.7,-99.9,99,92,90,30.09,29.99,9,-40,11,0.01
2013-2-5,56.5,36.0,42.9,49.0,11.7,-99.9,99,71,80,30.07,29.98,17,2,18,0.62
2013-2-6,55.7,46.7,39.2,46.0,41.1,37.0,94,81,65,30.14,30.02,14,4,22,0.00
2013-2-7,47.3,29.2,39.1,47.0,-5.2,-99.9,98,63,81,30.06,29.90,11,2,21,0.93
2013-2-8,55.2,39.6,34.9,44.0,25.6,-99.9,99,75,40,29.95,29.86,18,2,18,0.01
2013-2-9,56.0,40.6,36.0,38.0,15.0,-99.9,84,51,34,30.00,29.92,14,-124,16,0.00
2013-2-10,57.9,35.3,35.7,41.0,7.8,-99.9,88,56,47,30.04,29.94,13,2,16,0.00
2013-2-11,61.7,51.7,42.9,43.0,35.1,28.0,91,56,32,30.13,30.00,13,4,18,0.00
2013-2-12,57.5,46.5,37.6,49.0,41.2,36.0,98,83,56,30.30,30.13,10,2,11,0.01
2013-2-13,51.6,28.4,38.8,44.0,-8.5,-99.9,93,59,73,30.27,30.12,10,2,15,0.00
2013-2-14,66.0,39.6,43.7,54.0,12.0,-99.9,93,61,54,30.18,30.09,10,2,14,0.00
2013-2-15,62.7,39.6,44.4,46.0,8.5,-99.9,86,55,49,30.22,30.11,4,1,7,0.00
2013-2-16,67.3,44.8,44.5,51.0,24.6,-99.9,91,67,47,30.16,29.95,9,2,14,0.00
2013-2-17,58.5,46.3,38.0,47.0,36.5,-99.9,93,77,50,29.99,29.89,13,2,15,0.01
2013-2-18,50.1,38.8,38.7,44.0,25.3,-99.9,98,79,74,29.93,29.83,14,-103,20,0.00
2013-2-19,45.6,21.7,36.8,41.0,-26.8,-99.9,96,45,56,29.87,29.65,9,-457,13,0.15
2013-2-20,58.1,45.6,36.0,41.0,34.6,30.0,84,67,36,29.98,29.77,10,3,15,0.00
2013-2-21,56.4,43.5,40.6,40.0,22.9,-99.9,79,60,36,30.10,29.96,10,-49,18,0.00
2013-2-22,57.1,44.1,41.0,44.0,27.3,-99.9,85,67,52,30.20,30.08,10,-60,17,0.00
2013-2-23,56.0,48.2,42.2,43.0,36.2,28.0,92,66,36,30.19,30.08,17,5,18,0.00
2013-2-24,59.9,47.9,36.7,41.0,34.6,29.0,87,63,32,30.18,30.07,12,3,16,0.00
2013-2-25,66.6,51.0,40.0,45.0,37.4,17.0,91,65,15,30.18,30.08,10,2,15,0.00
2013-2-26,63.7,49.6,37.0,40.0,34.3,27.0,81,58,27,30.14,30.07,11,2,15,0.00
2013-2-27,61.3,52.0,40.6,46.0,38.6,31.0,76,61,41,30.27,30.12,10,2,15,0.00
2013-2-28,64.0,55.2,49.6,54.0,46.9,38.0,96,76,50,30.37,30.27,12,2,16,0.00
2013-3-1,54.3,20.3,46.7,50.0,-39.5,-99.9,96,38,86,30.34,30.17,2,-589,5,0.01
2013-3-2,67.3,38.0,48.0,55.0,0.2,-99.9,91,53,60,30.17,29.97,12,-331,14,0.00
2013-3-3,58.3,46.1,43.2,52.0,33.9,-99.9,95,76,42,30.01,29.94,10,-60,15,0.00
2013-3-4,44.7,18.1,40.0,44.0,-39.7,-99.9,98,40,89,30.05,29.96,10,-467,15,0.00
2013-3-5,52.6,38.6,36.9,46.0,23.0,-99.9,93,77,76,29.98,29.69,15,-123,23,1.10
2013-3-6,52.5,17.5,40.5,43.0,-47.5,-99.9,97,30,49,29.97,29.70,3,-623,16,0.00
2013-3-7,53.3,44.7,37.2,46.0,40.3,37.0,98,86,59,29.91,29.79,8,1,9,0.01
2013-3-8,58.9,47.8,38.6,48.0,41.3,36.0,92,79,59,29.94,29.76,8,2,14,0.00
2013-3-9,64.2,51.5,38.7,48.0,41.7,36.0,92,71,44,30.23,29.95,7,1,10,0.00
2013-3-10,65.8,51.8,43.1,49.0,42.5,38.0,96,72,44,30.27,30.16,7,1,12,0.00
2013-3-11,66.5,44.6,41.3,51.0,28.2,-99.9,98,74,48,30.19,30.02,12,2,16,0.00
2013-3-12,52.1,20.6,41.5,50.0,-34.6,-99.9,99,43,90,30.10,30.01,11,-202,15,0.01
2013-3-13,76.6,42.2,45.8,59.0,5.9,-99.9,95,52,51,30.11,29.98,12,-256,13,0.00
2013-3-14,61.3,35.3,45.0,51.0,1.2,-99.9,92,59,63,30.10,29.99,12,-116,13,0.00
2013-3-15,61.9,32.6,47.2,51.0,-9.2,-99.9,88,49,63,30.06,29.96,13,-52,16,0.00
2013-3-16,60.2,10.5,55.0,43.0,-73.5,-99.9,62,13,54,30.04,29.94,12,-567,19,0.00
2013-3-17,64.6,53.8,44.9,48.0,42.6,37.0,87,67,38,30.08,29.95,15,2,15,0.00
2013-3-18,63.8,51.3,42.1,50.0,43.7,39.0,93,77,47,30.04,29.95,6,0,10,0.00
2013-3-19,59.5,42.4,44.0,49.0,18.1,-99.9,93,61,60,30.04,29.96,4,-178,7,0.75
2013-3-20,-200.0,0.0,200.0,-99.9,-99.9,-99.9,0,0,100,30.04,29.95,0,-999,0,0.00
2013-3-21,60.7,17.6,52.8,49.0,-56.1,-99.9,72,19,57,30.06,29.92,12,-697,12,0.00
2013-3-22,60.6,40.0,39.4,42.0,3.7,-99.9,84,44,32,30.06,29.96,12,-234,16,0.01
2013-3-23,60.7,47.4,40.0,43.0,32.9,-99.9,85,68,43,30.08,29.96,10,2,16,0.01
2013-3-24,61.2,50.9,42.7,48.0,42.7,34.0,92,75,53,30.02,29.88,9,2,15,0.00
2013-3-25,44.7,12.1,40.0,44.0,-59.9,-99.9,97,27,90,29.94,29.86,1,-717,3,0.00
2013-3-26,57.6,27.4,40.3,45.0,-22.3,-99.9,93,42,47,29.95,29.86,11,-378,20,0.00
2013-3-27,54.1,27.1,45.0,53.0,-17.5,-99.9,97,52,88,29.93,29.86,7,-435,9,0.01
2013-3-28,-200.0,0.0,200.0,-99.9,-99.9,-99.9,0,0,100,30.00,29.92,9,-801,12,0.01
2013-3-29,73.4,31.3,51.7,59.0,-21.5,-99.9,93,39,52,30.02,29.93,9,-487,16,0.00
2013-3-30,53.0,11.4,48.8,49.0,-66.1,-99.9,97,21,84,29.99,29.92,5,-771,7,0.00
2013-3-31,54.4,3.0,54.0,53.0,-91.5,-99.9,95,5,95,29.98,29.92,10,-691,14,0.00
2013-4-1,49.5,1.6,48.8,48.0,-95.1,-99.9,94,3,93,30.07,29.96,7,-575,14,0.01
2013-4-2,59.3,40.1,44.0,55.0,22.2,-99.9,100,80,86,30.12,30.01,11,2,15,0.01
2013-4-3,71.0,35.8,43.3,59.0,4.4,-99.9,100,65,64,30.07,29.91,13,-163,18,0.01
2013-4-4,-200.0,0.0,200.0,-99.9,-99.9,-99.9,0,0,100,30.02,29.89,0,-999,0,0.00
2013-4-5,-200.0,0.0,200.0,-99.9,-99.9,-99.9,0,0,100,30.11,30.02,0,-999,0,0.00
2013-4-6,57.7,0.7,57.7,55.0,-98.0,-99.9,89,1,89,30.11,30.03,8,-987,14,0.00
2013-4-7,-200.0,0.0,200.0,-99.9,-99.9,-99.9,0,0,100,30.07,29.70,13,-844,23,0.01
2013-4-8,-200.0,0.0,200.0,-99.9,-99.9,-99.9,0,0,100,29.95,29.70,0,-999,0,0.00
2013-4-9,63.3,10.3,46.1,44.0,-71.8,-99.9,80,13,49,30.07,29.96,3,-799,11,0.00
2013-4-10,63.2,10.6,56.2,51.0,-73.7,-99.9,68,11,59,30.14,29.97,15,-754,16,0.00
2013-4-11,72.1,18.5,48.5,53.0,-51.1,-99.9,85,26,44,29.97,29.75,10,-454,15,0.00
2013-4-12,-200.0,0.0,200.0,-99.9,-99.9,-99.9,0,0,100,29.85,29.73,0,-999,0,0.00
2013-4-13,63.1,15.1,44.8,52.0,-58.8,-99.9,88,22,60,29.84,29.74,18,-484,21,0.00
2013-4-14,48.4,0.5,48.4,30.0,-98.5,-99.9,50,1,50,29.86,29.78,4,-988,7,0.00
2013-4-15,46.7,4.6,41.6,42.0,-85.8,-99.9,96,8,62,29.88,29.77,7,-895,13,0.00
2013-4-16,63.5,8.6,40.6,33.0,-75.6,-99.9,73,12,28,30.10,29.88,13,-546,19,0.00
2013-4-17,61.9,2.7,47.6,44.0,-92.6,-99.9,72,3,52,30.22,30.11,12,-630,17,0.00
2013-4-18,-200.0,0.0,200.0,-99.9,-99.9,-99.9,0,0,100,30.21,30.09,12,-647,18,0.00
2013-4-19,65.7,15.4,50.2,54.0,-58.6,-99.9,82,21,66,30.17,30.01,14,-373,17,0.00
2013-4-20,63.4,19.9,51.6,50.0,-48.1,-99.9,84,27,52,30.04,29.90,8,-498,17,0.00
2013-4-21,76.8,19.2,51.8,53.0,-54.7,-99.9,79,18,28,30.00,29.85,4,-694,6,0.00
2013-4-22,79.9,46.5,56.8,55.0,-0.3,-99.9,70,34,37,29.93,29.77,9,-314,18,0.00
2013-4-23,78.9,55.4,45.1,52.0,27.9,-99.9,97,48,14,29.88,29.76,7,-72,13,0.00
2013-4-24,52.2,47.5,42.9,49.0,45.7,42.0,99,94,85,29.87,29.74,16,3,17,0.00
2013-4-25,58.3,51.5,47.7,51.0,47.8,46.0,96,87,75,30.03,29.88,10,2,14,0.00
2013-4-26,59.5,50.0,45.4,54.0,47.9,45.0,98,93,79,30.16,30.03,12,2,15,0.00
2013-4-27,61.2,51.4,45.6,55.0,48.9,45.0,100,91,76,30.16,29.98,7,1,10,0.01
2013-4-28,80.2,61.7,44.9,59.0,50.9,44.0,99,72,35,30.00,29.81,5,1,9,0.01
2013-4-29,82.8,69.8,58.9,61.0,52.8,46.0,69,56,40,29.86,29.69,7,1,9,0.00
2013-4-30,84.6,66.7,53.1,54.0,46.9,39.0,77,52,20,29.80,29.69,7,1,11,0.00
2013-5-1,84.2,68.6,60.3,46.0,30.3,19.0,45,25,10,29.98,29.77,8,2,11,0.00
2013-5-2,86.9,70.4,54.8,47.0,34.9,24.0,51,30,15,30.11,29.98,7,1,9,0.00
2013-5-3,83.7,67.0,55.7,55.0,39.9,26.0,56,38,20,29.98,29.71,8,1,10,0.00
2013-5-4,80.9,63.2,51.2,55.0,46.7,38.0,94,59,26,29.70,29.49,8,2,18,0.00
2013-5-5,62.2,55.9,52.4,53.0,50.1,49.0,90,81,68,29.74,29.53,6,1,13,0.00
2013-5-6,65.7,52.6,49.9,54.0,38.7,-99.9,96,74,62,29.89,29.72,6,-82,13,0.00
2013-5-7,65.3,39.7,49.7,58.0,3.9,-99.9,97,56,69,29.96,29.88,7,-321,13,0.00
2013-5-8,59.5,51.1,47.8,55.0,49.6,47.0,99,94,84,30.05,29.94,9,2,14,0.00
2013-5-9,60.7,52.1,46.0,54.0,49.5,46.0,99,91,76,30.09,30.00,12,2,17,0.01
2013-5-10,64.3,53.1,47.2,57.0,50.6,47.0,99,91,76,30.11,30.01,9,2,15,0.01
2013-5-11,73.3,56.2,45.9,62.0,51.7,45.0,99,86,62,30.07,29.98,8,2,12,0.00
2013-5-12,73.3,58.3,45.9,61.0,52.3,45.0,99,82,54,30.09,29.94,8,2,11,0.01
2013-5-13,80.5,61.3,43.3,63.0,52.4,43.0,99,75,50,30.02,29.85,5,1,11,0.01
2013-5-14,79.9,64.2,52.0,57.0,50.7,44.0,83,63,38,29.89,29.81,5,1,9,0.00
2013-5-15,71.8,57.9,44.6,53.0,47.3,42.0,91,70,49,29.96,29.86,5,1,11,0.00
2013-5-16,65.7,57.8,50.6,56.0,50.1,46.0,86,76,59,29.93,29.84,12,3,21,0.00
2013-5-17,64.3,55.3,46.6,51.0,46.4,43.0,89,73,52,29.97,29.87,9,2,18,0.00
2013-5-18,74.5,60.4,45.9,54.0,48.1,43.0,91,66,46,30.07,29.96,11,2,14,0.00
2013-5-19,76.8,55.4,51.3,52.0,25.8,-99.9,78,47,28,30.06,29.90,12,-133,19,0.00
2013-5-20,81.6,64.6,49.1,54.0,47.2,38.0,89,56,26,29.96,29.80,13,3,19,0.00
2013-5-21,68.3,45.7,48.0,50.0,16.2,-99.9,92,53,37,29.93,29.80,20,-195,25,0.00
2013-5-22,63.6,32.2,46.8,43.0,-22.5,-99.9,65,28,32,29.94,29.81,15,-437,23,0.00
2013-5-23,67.9,18.3,55.7,47.0,-58.1,-99.9,56,14,38,29.91,29.81,13,-706,19,0.00
2013-5-24,-200.0,0.0,200.0,-99.9,-99.9,-99.9,0,0,100,29.93,29.82,0,-999,0,0.00
2013-5-25,64.8,42.4,45.2,48.0,8.0,-99.9,85,48,51,29.94,29.84,15,-247,21,0.00
2013-5-26,64.1,13.0,53.0,47.0,-68.6,-99.9,79,12,47,30.02,29.93,22,-779,26,0.00
2013-5-27,57.2,11.2,50.3,45.0,-74.1,-99.9,81,9,33,30.02,29.90,5,-694,13,0.03
2013-5-28,65.8,17.7,57.1,51.0,-59.7,-99.9,79,14,44,29.92,29.82,14,-665,22,0.00
2013-5-29,57.9,4.8,56.2,55.0,-86.9,-99.9,92,8,88,29.89,29.81,5,-904,11,0.00
2013-5-30,72.0,21.7,64.1,51.0,-52.9,-99.9,51,16,48,29.93,29.83,12,-682,16,0.00
2013-5-31,81.0,25.1,72.9,54.0,-51.1,-99.9,48,13,29,29.96,29.82,10,-675,15,0.00
2013-6-1,71.1,3.7,67.9,51.0,-92.0,-99.9,53,3,49,29.84,29.69,1,-946,4,0.00
2013-6-2,75.8,10.9,57.6,55.0,-74.2,-99.9,74,11,48,29.70,29.56,7,-829,7,0.00
2013-6-3,55.8,4.5,52.3,33.0,-89.0,-99.9,42,3,38,29.79,29.60,5,-915,14,0.00
2013-6-4,-200.0,0.0,200.0,-99.9,-99.9,-99.9,0,0,100,29.89,29.77,0,-999,0,0.00
2013-6-5,-200.0,0.0,200.0,-99.9,-99.9,-99.9,0,0,100,29.93,29.83,0,-999,0,0.00
2013-6-6,62.7,13.5,50.5,55.0,-67.6,-99.9,79,11,37,29.88,29.77,16,-721,22,0.00
2013-6-7,75.5,12.0,71.1,54.0,-75.0,-99.9,48,8,47,29.82,29.64,12,-833,18,0.00
2013-6-8,67.4,18.7,53.1,52.0,-56.8,-99.9,95,14,34,29.75,29.62,19,-681,28,0.00
2013-6-9,62.0,11.7,55.6,42.0,-73.0,-99.9,48,9,36,29.82,29.75,7,-757,12,0.00
2013-6-10,57.4,0.7,57.4,55.0,-98.1,-99.9,90,1,90,29.88,29.75,4,-988,8,0.00
2013-6-11,72.5,32.0,60.8,58.0,-26.2,-99.9,76,31,49,29.93,29.79,0,-521,0,0.00
2013-6-12,79.6,64.9,52.4,53.0,48.4,41.0,78,57,36,29.92,29.80,0,0,0,0.00
2013-6-13,80.5,64.5,52.0,52.0,42.0,-99.9,68,48,30,30.04,29.89,3,-21,3,0.00
2013-6-14,79.2,64.2,52.4,51.0,47.6,46.0,83,57,33,29.91,29.73,0,0,0,0.00
2013-6-15,70.2,59.9,48.8,55.0,50.1,47.0,93,72,53,29.88,29.72,0,0,0,0.00
2013-6-16,80.8,63.3,49.7,55.0,48.9,45.0,87,63,37,30.00,29.88,0,0,0,0.00
2013-6-17,73.6,62.9,54.3,57.0,51.1,45.0,88,66,54,30.00,29.90,0,0,1,0.00
2013-6-18,66.8,59.2,51.9,52.0,49.8,46.0,89,72,56,29.94,29.87,0,0,0,0.00
2013-6-19,73.2,61.5,49.2,52.0,47.9,45.0,84,63,43,29.99,29.91,0,0,0,0.00
2013-6-20,77.3,64.2,52.0,52.0,47.2,44.0,75,56,37,29.93,29.84,0,0,0,0.00
2013-6-21,83.0,68.8,54.7,53.0,48.1,41.0,69,49,32,29.91,29.81,0,0,0,0.00
2013-6-22,85.5,71.7,57.8,55.0,49.4,44.0,67,47,28,29.87,29.75,0,0,0,0.00
2013-6-23,64.2,59.3,54.2,60.0,55.9,52.0,97,88,67,29.77,29.71,0,0,0,0.00
2013-6-24,60.1,56.5,53.7,58.0,55.6,53.0,98,97,92,29.81,29.70,0,0,1,0.22
2013-6-25,62.2,59.7,57.3,62.0,59.5,57.0,99,99,98,29.90,29.78,1,0,1,2.30
2013-6-26,74.8,65.4,59.4,67.0,62.3,58.0,99,90,73,30.00,29.88,0,0,1,0.05
2013-6-27,85.6,70.0,56.5,68.0,61.6,56.0,98,77,49,30.04,29.93,1,0,1,0.01
2013-6-28,92.4,78.6,63.9,70.0,61.7,50.0,89,59,35,29.95,29.82,0,0,1,0.00
2013-6-29,91.8,82.5,70.8,68.0,58.6,50.0,55,45,36,29.85,29.71,1,0,1,0.00
2013-6-30,84.9,75.0,63.2,67.0,58.7,51.0,76,58,44,29.77,29.66,1,0,1,0.00
2013-7-1,88.3,73.4,57.7,67.0,61.0,55.0,93,67,46,29.80,29.68,1,0,1,0.00
2013-7-2,84.1,68.1,55.9,66.0,59.3,55.0,97,75,51,29.83,29.71,1,0,1,0.00
2013-7-3,80.1,66.8,55.6,65.0,58.5,55.0,98,76,56,29.84,29.69,1,0,1,0.00
2013-7-4,94.7,75.8,60.6,66.0,57.3,43.0,85,57,23,29.72,29.61,0,0,0,0.00
2013-7-5,77.3,64.2,52.3,58.0,52.0,42.0,91,67,36,29.68,29.57,0,0,1,0.00
2013-7-6,68.4,56.1,51.2,58.0,52.2,50.0,97,88,67,29.73,29.64,0,0,0,0.00
2013-7-7,69.1,56.5,50.9,59.0,53.1,50.0,98,89,69,29.78,29.69,0,0,0,0.00
2013-7-8,69.9,56.2,51.3,59.0,53.3,50.0,99,90,68,29.89,29.77,0,0,0,0.00
2013-7-9,80.7,63.2,47.6,63.0,53.3,47.0,98,74,43,29.99,29.86,0,0,0,0.01
2013-7-10,70.5,55.8,48.9,58.0,51.5,48.0,98,86,63,29.90,29.82,0,0,0,0.00
2013-7-11,66.9,54.4,48.7,57.0,51.7,48.0,99,91,69,29.87,29.79,0,0,0,0.03
2013-7-12,69.9,56.0,50.7,58.0,49.1,-99.9,97,83,66,29.88,29.78,0,-22,0,0.00
2013-7-13,72.4,59.4,48.5,59.0,52.9,48.0,98,81,61,29.90,29.80,0,0,0,0.00
2013-7-14,68.8,56.5,49.4,57.0,52.2,49.0,98,87,65,29.93,29.81,0,0,0,0.00
2013-7-15,62.6,45.5,48.7,56.0,27.8,-99.9,99,78,75,29.83,29.77,0,-156,0,0.02
2013-7-16,64.1,56.3,51.8,58.0,53.7,51.0,97,91,78,29.93,29.78,0,0,0,0.01
2013-7-17,69.8,58.7,51.7,60.0,54.7,51.0,98,87,67,30.03,29.93,0,0,0,0.00
2013-7-18,70.6,58.7,51.3,60.0,54.3,51.0,99,87,64,29.98,29.85,0,0,0,0.02
2013-7-19,75.1,59.4,48.8,61.0,53.9,48.0,99,84,55,29.88,29.73,0,0,0,0.01
2013-7-20,75.5,57.9,48.9,61.0,53.1,48.0,99,86,58,29.77,29.66,0,0,0,0.00
2013-7-21,71.3,58.0,51.1,59.0,53.1,50.0,98,85,63,29.80,29.67,0,0,0,0.00
2013-7-22,78.3,61.0,51.7,63.0,56.2,51.0,99,85,58,29.90,29.80,0,0,0,0.00
2013-7-23,72.3,62.4,55.5,61.0,56.5,54.0,93,82,68,29.95,29.84,0,0,10,0.00
2013-7-24,73.8,61.3,52.8,60.0,55.0,52.0,97,81,56,29.93,29.82,0,0,0,0.00
2013-7-25,67.0,57.0,50.3,57.0,52.9,50.0,98,87,67,29.93,29.82,0,0,0,0.00
2013-7-26,67.3,55.7,50.7,58.0,53.0,50.0,99,91,72,30.02,29.92,0,0,0,0.01
2013-7-27,66.7,54.6,50.5,58.0,52.5,50.0,99,93,72,29.94,29.79,0,0,0,0.01
2013-7-28,65.1,54.7,50.4,59.0,52.5,50.0,99,93,75,29.80,29.73,0,0,0,0.01
2013-7-29,67.6,56.3,52.1,58.0,52.8,51.0,97,89,70,29.93,29.75,0,0,0,0.00
2013-7-30,63.7,54.9,50.9,57.0,52.7,50.0,99,93,76,30.02,29.94,0,0,0,0.01
2013-7-31,73.6,59.5,51.3,59.0,53.8,50.0,99,83,58,30.02,29.89,0,0,0,0.01
2013-8-1,76.0,62.4,50.2,60.0,52.8,48.0,94,72,51,29.98,29.86,0,0,0,0.00
2013-8-2,76.5,63.6,52.2,59.0,52.6,49.0,90,69,43,29.90,29.78,0,0,0,0.00
2013-8-3,71.5,55.5,49.9,60.0,51.9,49.0,98,89,64,29.89,29.81,0,0,0,0.00
2013-8-4,65.2,54.5,49.6,57.0,52.1,49.0,99,92,69,29.93,29.86,0,0,0,0.02
2013-8-5,64.8,54.5,50.1,57.0,52.0,49.0,98,91,73,29.95,29.86,0,0,0,0.01
2013-8-6,65.6,56.7,49.9,57.0,53.0,49.0,98,88,70,29.96,29.88,0,0,1,0.00
2013-8-7,66.2,58.7,53.6,59.0,55.6,53.0,98,90,76,30.02,29.94,0,0,0,0.02
2013-8-8,65.1,57.8,51.6,59.0,55.1,51.0,98,91,76,29.94,29.85,0,0,1,0.03
2013-8-9,67.9,56.4,51.7,59.0,53.7,51.0,99,91,71,29.90,29.82,1,0,1,0.01
2013-8-10,68.3,59.0,53.4,59.0,55.5,53.0,98,88,70,29.98,29.89,0,0,0,0.00
2013-8-11,70.7,58.6,51.8,61.0,55.0,51.0,99,88,68,29.94,29.83,0,0,0,0.01
2013-8-12,71.7,57.7,50.8,61.0,53.8,50.0,99,88,64,29.93,29.84,0,0,0,0.01
2013-8-13,79.0,63.4,50.8,61.0,54.8,49.0,99,77,45,29.93,29.81,0,0,0,0.02
2013-8-14,85.9,68.6,51.7,61.0,55.7,48.0,93,66,37,29.90,29.79,0,0,0,0.00
2013-8-15,81.1,68.1,58.0,66.0,61.4,56.0,97,80,57,29.89,29.80,0,0,0,0.00
2013-8-16,80.2,66.2,55.3,66.0,59.0,54.0,98,80,56,29.93,29.83,0,0,0,0.00
2013-8-17,87.3,70.1,55.8,63.0,58.3,53.0,95,70,43,29.92,29.75,0,0,0,0.00
2013-8-18,86.1,71.3,55.2,65.0,58.3,54.0,97,67,40,29.82,29.69,0,0,0,0.00
2013-8-19,79.8,68.2,55.9,63.0,58.2,54.0,97,72,54,29.83,29.70,0,0,0,0.00
2013-8-20,75.8,61.5,56.2,63.0,58.1,55.0,99,89,61,29.83,29.74,0,0,0,0.00
2013-8-21,69.8,59.7,53.4,59.0,55.5,52.0,97,87,66,29.87,29.80,0,0,0,0.00
2013-8-22,68.7,58.6,53.6,59.0,54.8,53.0,98,88,68,29.89,29.81,0,0,0,0.01
2013-8-23,71.7,61.6,54.3,60.0,56.1,52.0,97,83,65,29.85,29.70,0,0,0,0.00
2013-8-24,74.3,63.2,51.9,60.0,55.8,50.0,97,78,60,29.82,29.72,0,0,0,0.00
2013-8-25,73.7,64.3,57.9,65.0,60.2,56.0,97,87,72,29.88,29.78,0,0,0,0.00
2013-8-26,77.3,65.1,57.2,62.0,57.2,54.0,97,78,48,29.94,29.80,0,0,0,0.00
2013-8-27,80.1,67.1,56.5,60.0,55.7,51.0,89,68,46,29.82,29.72,0,0,0,0.00
2013-8-28,75.3,63.8,53.6,65.0,59.3,53.0,98,86,68,29.86,29.74,0,0,0,0.00
2013-8-29,76.3,66.1,58.8,66.0,61.5,58.0,99,86,65,29.99,29.84,0,0,0,0.01
2013-8-30,88.6,72.4,60.7,66.0,61.0,57.0,96,70,39,29.98,29.81,0,0,0,0.00
2013-8-31,79.5,66.3,54.2,62.0,56.7,52.0,95,73,54,29.90,29.79,0,0,0,0.00
2013-9-1,75.0,62.5,51.4,62.0,56.7,50.0,98,83,57,29.88,29.79,0,0,0,0.00
2013-9-2,77.0,66.8,60.0,65.0,60.7,55.0,97,81,64,29.89,29.79,0,0,0,0.00
2013-9-3,76.3,66.1,56.8,60.0,55.5,51.0,83,70,49,29.93,29.82,0,0,0,0.00
2013-9-4,77.9,67.2,55.8,61.0,56.9,53.0,94,71,52,29.96,29.82,0,0,0,0.00
2013-9-5,80.1,68.2,56.3,60.0,55.8,52.0,87,66,47,29.94,29.84,0,0,0,0.00
2013-9-6,87.8,72.5,57.0,59.0,51.9,46.0,84,52,29,29.93,29.75,0,0,0,0.00
2013-9-7,91.7,74.7,62.2,58.0,51.0,47.0,65,45,27,29.83,29.72,0,0,0,0.00
2013-9-8,82.9,67.2,52.3,61.0,53.9,50.0,97,66,39,29.81,29.68,0,0,0,0.00
2013-9-9,86.8,65.5,52.9,62.0,54.5,50.0,94,70,37,29.75,29.60,0,0,0,0.00
2013-9-10,71.9,60.9,55.6,63.0,58.4,54.0,98,92,69,29.81,29.63,0,0,0,0.02
2013-9-11,67.4,61.9,59.7,61.0,59.6,59.0,98,92,79,29.92,29.81,0,0,0,0.01
2013-9-12,72.8,62.2,55.5,64.0,59.0,54.0,98,90,71,29.90,29.79,0,0,0,0.01
2013-9-13,75.8,61.7,52.0,62.0,56.0,52.0,99,83,57,29.82,29.65,0,0,0,0.02
2013-9-14,75.1,60.6,51.5,61.0,55.0,51.0,99,84,60,29.75,29.63,0,0,0,0.00
2013-9-15,73.6,59.9,48.1,60.0,55.1,47.0,99,86,59,29.80,29.66,0,0,0,0.01
2013-9-16,80.5,65.5,52.8,63.0,56.7,52.0,99,76,47,29.83,29.68,0,0,0,0.01
2013-9-17,75.9,64.8,54.8,58.0,53.2,49.0,87,68,50,29.79,29.70,0,0,0,0.00
2013-9-18,79.5,66.9,55.5,53.0,48.9,45.0,77,55,31,29.85,29.73,0,0,0,0.00
2013-9-19,82.2,66.1,54.8,55.0,49.2,46.0,82,57,32,29.80,29.65,0,0,0,0.00
2013-9-20,73.3,61.9,50.0,62.0,55.9,47.0,97,81,64,29.77,29.65,0,0,0,0.02
2013-9-21,66.7,60.2,54.4,64.0,57.4,52.0,99,91,71,29.80,29.68,0,0,0,0.59
2013-9-22,72.0,60.8,50.9,58.0,53.2,50.0,98,78,53,29.93,29.80,0,0,0,0.00
2013-9-23,79.3,66.2,55.2,64.0,56.3,50.0,89,71,55,29.97,29.84,0,0,0,0.00
2013-9-24,76.4,63.8,56.6,57.0,52.4,48.0,85,68,47,29.91,29.81,0,0,0,0.00
2013-9-25,69.9,59.5,50.6,51.0,46.9,42.0,85,65,41,29.86,29.73,0,0,0,0.00
2013-9-26,73.9,61.0,47.6,50.0,43.3,40.0,75,55,34,29.91,29.76,0,0,0,0.00
2013-9-27,76.9,63.1,50.5,47.0,41.6,35.0,76,49,24,30.04,29.91,0,0,0,0.00
2013-9-28,77.6,62.0,50.3,56.0,47.3,40.0,89,62,28,30.03,29.92,0,0,0,0.00
2013-9-29,66.7,60.6,56.1,63.0,58.7,53.0,98,93,84,30.01,29.95,0,0,0,0.12
2013-9-30,69.5,61.3,52.8,66.0,58.9,46.0,99,92,67,29.97,29.89,0,0,0,0.14
2013-10-1,75.5,61.3,49.4,54.0,49.7,46.0,90,68,39,29.96,29.83,0,0,4,0.00
2013-10-2,73.6,61.3,52.0,54.0,47.7,40.0,84,63,39,29.95,29.83,0,0,0,0.00
2013-10-3,74.2,62.7,51.9,40.0,34.4,25.0,61,39,16,30.01,29.91,0,0,0,0.00
2013-10-4,80.2,70.2,60.9,32.0,27.1,24.0,27,20,13,30.02,29.91,0,0,0,0.00
2013-10-5,85.0,70.1,57.7,40.0,29.4,24.0,34,23,12,30.12,29.99,0,0,0,0.00
2013-10-6,84.2,66.1,51.0,42.0,33.5,29.0,49,31,17,30.05,29.90,0,0,0,0.00
2013-10-7,81.5,65.9,53.1,46.0,38.4,31.0,52,37,21,29.92,29.77,0,0,0,0.00
2013-10-8,75.1,61.0,50.5,51.0,45.8,42.0,83,59,37,29.84,29.61,0,0,0,0.00
2013-10-9,70.7,59.6,47.8,47.0,42.8,39.0,81,56,36,29.67,29.52,0,0,0,0.00
2013-10-10,70.3,56.5,46.1,52.0,45.4,39.0,95,68,42,29.90,29.66,0,0,0,0.00
2013-10-11,65.3,51.9,45.2,53.0,47.6,44.0,98,87,61,30.01,29.89,0,0,0,0.01
2013-10-12,67.2,55.5,44.3,53.0,47.4,44.0,98,77,53,29.93,29.80,0,0,0,0.01
2013-10-13,71.9,58.7,49.1,50.0,45.3,37.0,88,64,38,29.97,29.83,0,0,0,0.00
2013-10-14,78.6,61.3,48.7,47.0,41.1,35.0,75,51,27,30.06,29.93,0,0,0,0.00
2013-10-15,82.6,64.2,52.2,41.0,35.5,30.0,55,37,15,29.98,29.87,0,0,0,0.00
2013-10-16,83.9,63.8,50.6,41.0,34.2,29.0,53,35,17,30.03,29.89,0,0,0,0.00
2013-10-17,82.0,63.4,50.5,43.0,36.0,33.0,57,38,19,30.02,29.87,0,0,0,0.00
2013-10-18,76.1,61.3,48.2,51.0,41.7,37.0,76,51,31,29.98,29.88,0,0,0,0.00
2013-10-19,84.7,63.3,48.4,48.0,42.2,38.0,78,50,23,30.02,29.92,0,0,0,0.00
2013-10-20,76.2,56.7,44.9,51.0,44.5,40.0,95,67,36,29.95,29.81,0,0,0,0.00
2013-10-21,69.2,53.8,44.2,55.0,47.3,43.0,98,81,48,29.92,29.84,0,0,0,0.01
2013-10-22,75.5,54.6,40.9,55.0,46.8,40.0,98,78,44,29.96,29.84,0,0,0,0.01
2013-10-23,70.7,51.8,43.0,55.0,46.8,42.0,98,85,53,29.90,29.82,0,0,0,0.01
2013-10-24,65.3,51.7,45.2,52.0,47.8,45.0,99,88,61,30.01,29.88,0,0,0,0.01
2013-10-25,69.5,54.8,43.7,54.0,46.9,40.0,98,77,47,30.12,30.00,0,0,0,0.01
2013-10-26,79.4,60.1,47.2,53.0,45.4,35.0,95,63,32,30.09,29.93,0,0,0,0.00
2013-10-27,62.2,50.6,45.1,51.0,46.5,42.0,98,86,64,29.92,29.54,0,0,0,0.01
2013-10-28,65.4,53.1,44.9,47.0,44.3,42.0,97,74,48,29.72,29.57,0,0,0,0.00
2013-10-29,64.7,52.3,46.4,49.0,46.6,45.0,97,82,56,29.96,29.72,0,0,0,0.00
2013-10-30,68.1,52.9,43.2,50.0,43.9,38.0,98,74,50,30.10,29.96,0,0,0,0.01
2013-10-31,74.8,56.8,45.2,49.0,43.6,40.0,87,64,38,30.11,29.98,0,0,0,0.00
2013-11-1,79.9,61.6,48.8,49.0,44.4,41.0,82,57,28,30.08,29.92,0,0,0,0.00
2013-11-2,72.5,59.3,47.0,55.0,46.5,37.0,89,64,46,29.95,29.80,0,0,0,0.00
2013-11-3,66.5,53.5,44.5,37.0,34.0,28.0,70,51,24,29.99,29.84,0,0,0,0.00
2013-11-4,71.8,55.8,42.4,38.0,33.5,26.0,75,48,18,30.01,29.82,0,0,0,0.00
2013-11-5,76.3,59.8,47.5,44.0,38.9,34.0,67,49,24,30.13,29.99,0,0,0,0.00
2013-11-6,76.0,61.1,50.1,51.0,42.2,36.0,87,54,27,30.19,30.07,0,0,0,0.00
2013-11-7,74.3,60.0,50.8,50.0,43.3,39.0,94,57,28,30.09,29.97,0,0,0,0.00
2013-11-8,74.1,56.1,45.2,54.0,47.6,37.0,97,76,36,30.01,29.86,0,0,0,0.00
2013-11-9,74.5,54.7,44.3,50.0,46.5,43.0,97,78,37,29.96,29.88,0,0,0,0.01
2013-11-10,66.2,52.9,46.7,52.0,48.9,46.0,97,87,59,30.04,29.92,0,0,0,0.01
2013-11-11,67.0,54.4,46.3,51.0,47.8,45.0,98,81,49,30.09,29.98,0,0,0,0.01
2013-11-12,72.5,59.9,53.2,52.0,49.3,47.0,84,69,46,30.19,30.06,0,0,0,0.00
2013-11-13,77.4,59.3,49.9,55.0,50.5,48.0,95,75,44,30.18,30.00,0,0,0,0.00
2013-11-14,65.0,54.3,45.2,55.0,47.1,35.0,98,79,49,30.01,29.79,0,0,0,0.01
2013-11-15,65.8,54.9,46.3,43.0,39.9,36.0,78,59,37,29.80,29.63,0,0,0,0.00
2013-11-16,69.2,53.7,43.9,50.0,43.7,36.0,91,71,40,29.82,29.66,0,0,0,0.00
2013-11-17,63.1,50.5,43.7,50.0,46.1,43.0,97,85,61,29.99,29.82,0,0,0,0.00
2013-11-18,56.1,48.2,40.2,49.0,45.6,39.0,99,91,76,30.07,29.98,6,1,12,0.03
2013-11-19,55.6,52.5,49.1,55.0,52.1,48.0,99,98,95,30.00,29.84,5,0,6,1.18
2013-11-20,56.8,53.8,48.9,57.0,53.4,48.0,100,98,93,29.83,29.75,7,1,9,0.46
2013-11-21,61.6,54.7,48.7,50.0,33.0,17.0,99,54,20,29.90,29.80,12,3,21,0.01
2013-11-22,72.4,63.1,55.6,17.0,12.2,6.0,21,14,9,29.95,29.81,12,4,21,0.00
2013-11-23,67.8,59.0,47.5,35.0,23.6,11.0,46,27,14,29.99,29.84,14,2,17,0.00
2013-11-24,63.9,50.6,41.1,47.0,37.9,28.0,87,63,38,30.15,29.99,6,1,9,0.00
2013-11-25,64.2,51.0,40.8,45.0,41.2,38.0,89,71,44,30.26,30.15,5,0,9,0.00
2013-11-26,61.4,51.1,42.7,44.0,40.7,38.0,85,69,49,30.18,29.94,5,1,8,0.00
2013-11-27,64.4,53.0,43.8,46.0,42.1,38.0,82,68,48,29.94,29.76,7,1,12,0.00
2013-11-28,70.5,55.9,46.0,46.0,41.5,38.0,84,61,36,29.97,29.77,6,1,8,0.00
2013-11-29,69.2,56.1,45.8,48.0,42.7,39.0,78,62,38,30.11,29.97,5,1,7,0.00
2013-11-30,69.2,55.8,46.7,50.0,44.2,41.0,81,67,43,30.21,30.10,5,0,9,0.00
2013-12-1,69.9,57.8,48.1,50.0,45.8,43.0,84,66,43,30.28,30.13,5,0,8,0.00
2013-12-2,63.3,54.6,48.3,53.0,49.2,46.0,97,82,60,30.12,29.86,9,2,14,0.00
2013-12-3,55.6,48.4,40.5,51.0,33.9,26.0,94,60,33,29.85,29.75,13,3,16,0.00
2013-12-4,52.8,42.2,35.9,32.0,29.4,23.0,80,62,32,29.99,29.85,5,1,10,0.00
2013-12-5,50.8,39.2,30.9,32.0,28.0,23.0,88,66,39,30.08,29.98,7,1,11,0.00
2013-12-6,48.4,39.4,30.1,47.0,33.8,26.0,96,81,53,30.09,29.81,13,2,23,0.40
2013-12-7,45.9,39.4,32.4,42.0,29.9,24.0,96,70,44,30.16,29.83,9,2,16,0.01
2013-12-8,45.9,36.6,28.3,28.0,24.2,21.0,88,63,42,30.24,30.14,5,1,10,0.00
2013-12-9,51.0,39.0,29.7,33.0,24.9,21.0,76,59,34,30.33,30.21,5,1,8,0.00
2013-12-10,53.3,40.3,29.6,36.0,28.2,24.0,85,64,36,30.32,30.12,4,0,6,0.00
2013-12-11,56.8,44.1,34.3,37.0,31.9,29.0,81,64,42,30.16,30.09,5,1,8,0.00
2013-12-12,60.1,46.5,36.1,37.0,33.1,30.0,85,62,36,30.19,30.09,6,1,7,0.00
2013-12-13,62.2,48.7,37.8,40.0,36.3,32.0,82,64,35,30.26,30.13,5,1,8,0.00
2013-12-14,62.8,49.4,41.0,42.0,39.5,37.0,89,71,47,30.33,30.21,4,0,7,0.00
2013-12-15,63.5,49.8,39.2,42.0,38.7,36.0,91,68,41,30.28,30.15,4,0,5,0.00
2013-12-16,64.5,51.9,43.1,41.0,38.4,36.0,81,62,40,30.16,30.04,5,1,9,0.00
2013-12-17,63.4,52.4,43.2,43.0,39.8,37.0,81,63,45,30.09,29.94,4,1,8,0.00
2013-12-18,56.9,51.2,45.5,48.0,41.1,36.0,83,69,57,29.93,29.67,9,1,16,0.00
2013-12-19,60.2,50.9,43.6,37.0,29.5,17.0,75,48,24,29.84,29.63,17,4,19,0.00
2013-12-20,64.7,52.1,41.3,37.0,27.6,18.0,59,40,18,29.94,29.82,6,1,9,0.00
2013-12-21,63.9,55.1,49.1,50.0,46.1,37.0,87,72,59,29.98,29.87,7,1,10,0.00
2013-12-22,65.6,53.2,45.8,48.0,42.9,38.0,88,70,50,30.19,29.98,8,1,8,0.00
2013-12-23,66.8,53.6,45.2,45.0,41.8,40.0,85,66,44,30.33,30.19,4,0,6,0.00
2013-12-24,70.2,56.2,47.4,47.0,43.9,41.0,81,65,42,30.25,30.10,4,0,8,0.00
2013-12-25,64.6,52.3,43.3,44.0,40.7,38.0,86,67,43,30.23,30.12,5,0,8,0.00
2013-12-26,65.7,52.5,43.2,41.0,36.3,31.0,69,56,39,30.18,30.09,5,1,7,0.00
2013-12-27,57.6,50.4,44.2,40.0,35.5,31.0,74,57,43,30.14,30.03,6,0,7,0.00
2013-12-28,70.6,55.4,41.3,42.0,33.0,23.0,70,47,22,30.08,29.95,9,1,11,0.00
2013-12-29,66.0,55.7,47.0,34.0,28.2,21.0,57,36,23,30.08,29.98,8,1,12,0.00
2013-12-30,61.9,50.2,40.7,45.0,34.9,29.0,95,58,37,30.16,30.06,7,1,10,0.00
2013-12-31,61.5,49.7,41.1,45.0,41.6,38.0,94,75,49,30.19,30.07,3,0,7,0.00
2014-1-1,67.6,52.4,43.3,46.0,36.9,31.0,76,58,33,30.13,30.03,3,0,6,0.00
2014-1-2,66.2,53.9,44.0,41.0,37.4,34.0,76,55,36,30.09,29.96,6,0,8,0.00